Dewpoint
1 2 3 3 4 5 5 5 5 7 7 3 -1 6 10 11 12 13 14 13 10 10 9 5 7 9 12 11 13 12 13 12
1 3 3 4 4 5 5 5 6 6 6 6 6 4 6 10 11 11 13 14 14 13 13 12 7 6 11 10 13 14 12 12
1 2 3 4 4 5 5 5 6 6 6 6 7 7 5 7 9 11 12 13 14 13 13 13 7 6 11 11 13 12 13 12
1 2 2 3 3 4 5 5 5 6 6 6 6 7 6 5 10 11 11 13 12 10 9 13 7 6 8 8 12 10 12 11
1 2 2 2 3 3 4 4 5 5 6 6 6 7 7 3 5 10 11 12 13 13 11 13 11 8 8 7 9 12 12 10
2 2 2 2 2 3 4 4 4 4 4 6 6 6 7 8 6 8 9 11 12 13 13 13 10 11 9 10 12 12 11 11
2 1 1 1 2 3 3 3 3 3 6 7 7 7 7 8 7 9 10 11 11 12 12 13 11 10 9 8 4 11 11 10
1 0 0 1 1 2 3 2 2 4 6 6 6 6 7 7 9 9 10 11 11 11 12 13 12 10 8 2 -0 10 12 11
0 0 0 1 1 2 1 1 3 4 5 6 7 8 8 8 8 9 11 12 10 10 12 12 12 12 9 6 3 11 11 11
0 -0 0 0 1 1 0 0 2 4 5 7 7 9 9 10 10 9 11 12 11 11 12 12 12 13 12 11 11 10 10 11
-1 -1 -0 -0 0 1 -0 -0 1 3 5 6 7 10 11 12 11 10 12 11 12 11 11 12 12 11 10 10 9 10 11 11
-1 -1 -1 -0 -0 -0 -1 -1 1 2 4 6 8 9 10 11 11 11 11 11 11 11 12 12 11 11 10 6 4 8 11 12
-1 -1 -1 -1 -1 -1 -1 -1 0 1 2 5 6 7 9 10 10 11 11 11 10 11 11 11 11 11 8 6 7 6 9 11
-2 -2 -2 -2 -2 -1 -2 -1 0 1 2 3 5 6 7 9 10 11 11 10 11 11 11 11 10 8 7 6 5 6 9 10
-2 -2 -2 -2 -2 -2 -2 -3 -1 0 1 1 4 4 4 7 8 9 11 11 11 10 11 11 10 10 9 7 9 10 10 9
-3 -3 -3 -3 -3 -3 -3 -4 -2 -1 0 0 1 0 2 4 6 7 9 10 9 10 10 10 10 10 9 5 6 8 9 10
-4 -4 -3 -4 -4 -4 -4 -5 -4 -2 -1 -1 -1 0 2 3 4 5 7 7 9 9 9 9 10 10 9 6 7 10 10 9
-4 -4 -5 -5 -6 -5 -5 -5 -4 -3 -2 -2 -2 -1 0 1 1 2 5 4 6 8 8 9 9 9 10 10 9 9 9 9
-6 -6 -6 -6 -6 -6 -6 -6 -4 -3 -3 -3 -3 -2 -2 -1 -1 -0 0 1 1 2 3 4 5 9 9 9 9 9 9 8
Wind_Speed
2 3 4 6 9 13 14 14 14 15 17 20 23 24 30 33 31 32 32 34 34 36 39 38 35 31 30 32 33 28 29 24
2 2 5 7 10 13 15 17 17 17 18 18 20 22 27 32 35 35 35 33 33 35 35 35 37 35 31 32 30 29 30 26
1 4 8 10 12 13 15 16 18 18 19 20 21 23 27 29 34 34 37 36 35 36 37 38 38 35 32 32 34 29 27 27
3 8 10 12 14 15 16 17 19 20 21 22 23 24 29 35 27 34 33 36 43 45 38 44 40 37 37 36 37 32 30 27
6 10 13 15 16 17 18 19 20 19 20 22 22 25 28 29 35 31 34 39 39 41 44 46 40 37 37 36 36 32 26 31
8 11 14 15 17 19 21 21 21 20 21 24 28 27 27 28 36 33 34 36 40 41 45 45 43 37 37 31 25 29 30 28
9 11 14 15 17 19 21 22 23 22 24 25 28 29 30 29 32 33 34 37 39 43 41 45 43 41 36 33 29 42 34 29
10 13 15 17 19 21 22 23 26 26 27 26 25 27 29 33 34 38 34 35 38 41 45 47 47 40 39 35 29 42 38 31
11 15 17 20 22 24 25 27 29 29 29 26 23 24 29 34 36 39 31 33 34 34 41 45 46 44 50 44 39 44 38 34
14 15 18 20 23 24 26 29 30 29 30 28 22 17 20 27 26 34 33 30 30 28 37 38 39 36 33 32 36 38 38 34
15 17 20 21 22 24 26 26 29 29 31 26 21 11 12 15 25 30 30 36 29 28 30 36 41 38 33 34 30 29 35 32
15 17 19 20 22 23 26 28 30 30 28 29 20 11 11 11 15 22 25 27 28 26 31 36 33 42 36 32 26 27 29 30
14 16 18 21 23 24 26 31 31 30 26 26 22 16 9 12 16 18 21 30 30 28 28 28 30 36 33 34 25 38 32 35
15 16 18 20 22 24 25 31 31 29 27 22 25 19 13 6 13 18 18 23 27 30 27 28 30 29 26 22 24 48 44 30
14 16 18 19 21 23 26 29 31 29 25 23 19 22 19 12 7 5 21 21 23 25 26 28 30 27 26 27 26 29 29 27
14 16 17 19 21 23 24 26 30 29 27 26 24 20 17 11 7 14 6 19 18 18 23 33 25 27 32 29 23 27 25 24
13 15 16 18 21 22 22 24 26 28 29 28 25 23 20 17 16 8 10 6 18 25 21 28 31 33 31 31 29 24 24 24
13 15 16 17 19 20 21 22 23 27 28 28 28 27 25 23 22 16 7 9 6 11 20 25 25 26 24 23 24 24 24 23
14 14 15 17 17 18 19 19 24 27 28 27 28 27 27 26 24 22 20 16 11 3 6 14 16 26 27 25 24 25 23 22
Wind_Direction
223 287 321 329 327 324 319 313 303 297 289 275 264 239 246 238 236 234 235 241 233 229 231 235 230 227 226 229 232 231 229 229
190 338 352 350 339 332 325 313 304 298 289 281 268 262 250 245 240 235 234 235 234 225 225 230 228 231 227 230 225 229 230 226
137 0 355 351 343 334 327 321 312 300 287 280 270 262 251 249 244 244 237 233 233 234 225 226 231 230 222 222 223 222 222 226
353 354 349 342 340 335 328 321 313 306 293 287 279 270 262 237 239 239 238 237 236 238 237 231 230 232 228 224 229 225 222 222
4 350 345 338 332 332 328 321 316 310 297 288 278 262 258 251 241 239 241 231 235 234 228 223 229 228 226 227 228 220 220 221
5 352 343 336 331 329 327 324 320 313 302 290 281 269 259 255 241 241 237 237 232 229 231 228 229 221 223 218 218 226 226 225
2 350 340 333 331 330 328 325 322 317 308 297 280 268 260 243 247 241 230 236 240 233 229 227 230 221 218 210 240 250 230 224
0 354 348 342 338 337 332 329 327 325 320 307 287 274 260 249 242 241 235 234 239 240 229 224 231 225 214 229 261 238 225 225
3 356 351 345 341 338 335 335 337 333 326 314 298 281 265 254 241 239 240 232 246 246 230 226 236 228 221 237 219 216 223 228
358 356 353 349 345 342 338 337 337 339 336 323 317 297 272 255 238 236 228 231 238 249 226 230 220 213 221 218 217 224 231 227
355 355 354 352 349 346 342 337 340 347 344 332 323 317 273 256 236 224 224 232 232 238 228 232 220 222 219 212 214 226 222 222
351 353 354 351 351 352 347 343 347 348 352 341 330 314 286 262 235 238 227 230 229 222 214 212 234 223 211 210 234 244 234 224
353 355 354 354 354 354 351 352 353 353 355 353 339 338 323 267 249 240 242 234 231 217 225 232 214 215 208 221 243 256 248 240
357 356 358 356 354 355 355 360 360 357 353 356 346 353 352 304 242 240 241 239 235 223 230 218 210 209 215 218 240 214 225 231
359 357 357 356 356 358 359 0 7 5 2 359 352 353 349 355 311 242 209 220 228 234 223 210 206 211 210 204 206 214 206 226
3 360 356 357 358 2 1 3 12 15 18 14 18 7 357 0 17 330 238 220 200 193 208 211 224 214 218 224 232 221 224 223
359 358 357 2 1 2 1 4 11 21 27 27 24 23 16 15 33 39 270 261 197 215 220 208 210 218 213 224 222 210 216 227
6 3 2 3 4 360 6 6 16 31 31 30 30 34 35 31 34 30 26 339 258 195 189 199 201 212 203 202 207 216 221 225
15 8 10 12 10 14 13 16 29 36 37 34 34 35 40 42 44 51 55 46 39 301 168 168 169 184 199 206 209 213 212 220
Height
1451 1453 1453 1452 1451 1449 1448 1447 1445 1444 1444 1444 1444 1445 1447 1448 1450 1450 1451 1450 1452 1455 1458 1460 1464 1470 1472 1475 1478 1481 1483 1487
1449 1451 1450 1450 1449 1447 1445 1442 1441 1440 1439 1439 1440 1439 1440 1440 1441 1444 1445 1446 1445 1448 1451 1454 1455 1460 1465 1469 1472 1476 1478 1480
1448 1448 1448 1447 1446 1444 1442 1439 1436 1434 1434 1433 1432 1431 1431 1433 1433 1434 1438 1439 1439 1441 1444 1448 1449 1453 1458 1463 1464 1469 1474 1476
1446 1445 1445 1445 1443 1441 1438 1435 1431 1428 1427 1424 1423 1423 1421 1421 1424 1426 1429 1430 1432 1432 1432 1445 1438 1444 1450 1454 1458 1461 1465 1470
1443 1443 1442 1442 1441 1438 1434 1430 1426 1423 1421 1418 1416 1415 1414 1415 1417 1417 1419 1422 1424 1425 1425 1434 1431 1435 1442 1447 1450 1456 1460 1461
1442 1443 1441 1441 1438 1435 1430 1426 1421 1418 1414 1411 1407 1404 1405 1407 1405 1408 1409 1410 1413 1417 1420 1422 1422 1430 1435 1440 1448 1454 1455 1456
1442 1443 1442 1440 1437 1433 1427 1422 1416 1411 1406 1402 1399 1395 1394 1395 1398 1397 1398 1400 1402 1408 1413 1415 1416 1420 1427 1431 1435 1454 1449 1447
1443 1443 1440 1437 1433 1428 1422 1417 1410 1405 1399 1394 1391 1386 1384 1384 1386 1387 1391 1392 1393 1397 1404 1406 1409 1415 1419 1423 1421 1433 1444 1442
1443 1440 1437 1434 1429 1424 1418 1411 1403 1398 1393 1387 1381 1377 1375 1374 1374 1379 1383 1384 1385 1392 1396 1399 1404 1409 1410 1418 1418 1428 1434 1437
1441 1439 1436 1432 1427 1421 1415 1408 1401 1394 1386 1379 1373 1369 1367 1366 1367 1372 1375 1377 1379 1384 1389 1394 1397 1401 1405 1409 1414 1423 1428 1432
1438 1437 1433 1430 1426 1420 1414 1408 1399 1390 1383 1376 1369 1363 1361 1359 1363 1367 1369 1371 1374 1378 1383 1385 1389 1395 1397 1402 1410 1417 1422 1424
1440 1436 1433 1431 1426 1421 1413 1406 1396 1388 1380 1374 1367 1360 1357 1358 1359 1362 1363 1367 1369 1372 1374 1378 1383 1386 1391 1398 1404 1407 1416 1418
1439 1435 1434 1431 1427 1421 1415 1404 1395 1388 1380 1374 1368 1361 1357 1356 1355 1358 1359 1361 1363 1367 1368 1373 1378 1383 1389 1394 1399 1405 1413 1414
1439 1437 1435 1432 1428 1422 1415 1403 1396 1388 1381 1372 1370 1363 1359 1356 1355 1355 1357 1359 1360 1363 1366 1370 1374 1378 1381 1384 1384 1399 1407 1410
1441 1439 1437 1433 1429 1422 1414 1405 1398 1390 1382 1375 1367 1367 1362 1356 1354 1353 1352 1354 1356 1360 1365 1368 1371 1375 1379 1382 1386 1394 1398 1402
1444 1441 1438 1434 1429 1422 1416 1409 1402 1394 1384 1378 1371 1369 1365 1359 1353 1348 1353 1353 1351 1353 1359 1363 1367 1370 1372 1374 1377 1385 1390 1396
1446 1444 1440 1434 1429 1424 1420 1413 1406 1398 1389 1383 1380 1373 1366 1358 1355 1352 1350 1353 1346 1352 1356 1359 1363 1366 1366 1368 1372 1379 1384 1388
1446 1444 1440 1435 1431 1428 1422 1417 1410 1401 1395 1390 1384 1378 1371 1364 1359 1356 1348 1353 1351 1349 1353 1356 1358 1362 1366 1367 1371 1376 1380 1384
1447 1445 1442 1437 1434 1429 1425 1420 1412 1406 1400 1396 1391 1385 1379 1373 1368 1364 1361 1357 1357 1358 1352 1353 1355 1357 1363 1367 1370 1374 1377 1381